Location: Asheville, NC
(35.6000°N, 82.5500°W)
Time: 00:25:17
(UTC-04:00)

ITAMSAT 1 - Pass Details

Date: 12 March 2018
Orbit: 784 x 796 km, 98.9° (Epoch: 22 June)

Event Time Altitude Azimuth Distance (km) Brightness Sun altitude
Rises 06:42:36 0° 355° (N) 3,302 10.9 -13.5°
Reaches altitude 10° 06:45:32 10° 339° (NNW) 2,367 10.0 -12.9°
Maximum altitude 06:49:08 19° 295° (WNW) 1,799 9.0 -12.2°
Enters shadow 06:51:03 16° 268° (W) 1,973 9.1 -11.8°
